CW3074 Bastia FR current weather conditions

sailwx.info

Wind from 207

Air temperature 22.2° C
Dewpoint 17.8° C

Last reported at 2019-Sep-16 22:02 UTC.
Time now 2019-Sep-16 22:53 UTC

Location: N 42°42' E 009°27'.
View on Google Maps.

See reports from other nearby stations

  
Tides and Currents Weather Stations Pressure Air Temp Water Temp Dewpoint Dewpoint Depression Visibility Wind Speed Wind Dir Waves Ship Positions
date/time (UTC)wind fromknots sea level pressurealtimeterstation pressurevisibilityair tempwater tempwave heightnotes
2019-Sep-16 22:02 207 22.2
2019-Sep-16 21:46 207 22.2
2019-Sep-16 21:32 207 22.2
2019-Sep-16 21:17 207 22.8
2019-Sep-16 21:01 207 22.2
2019-Sep-16 20:47 207 22.2
2019-Sep-16 20:31 207 22.8
2019-Sep-16 20:17 207 0 22.8
2019-Sep-16 20:01 196 0 22.8
2019-Sep-16 19:47 196 22.8
2019-Sep-16 19:31 196 0 22.8
2019-Sep-16 19:16 195 0 23.3
2019-Sep-16 19:02 195 0 23.3
2019-Sep-16 18:46 195 23.3
2019-Sep-16 18:31 195 23.9
2019-Sep-16 18:17 195 23.9
2019-Sep-16 18:01 195 23.9
2019-Sep-16 17:46 195 24.4
2019-Sep-16 17:31 194 24.4
2019-Sep-16 17:16 194 0 24.4
2019-Sep-16 17:02 195 0 24.4
2019-Sep-16 16:47 127 0 24.4
2019-Sep-16 16:32 133 1 24.4
2019-Sep-16 16:16 155 0 25.6
2019-Sep-16 16:01 175 0 25.6
2019-Sep-16 15:46 119 1 25.0
2019-Sep-16 15:31 109 1 25.0
2019-Sep-16 15:16 140 1 24.4
2019-Sep-16 15:01 123 3 24.4
2019-Sep-16 14:45 133 2 24.4
2019-Sep-16 14:30 119 3 24.4
2019-Sep-16 14:15 115 3 24.4
2019-Sep-16 14:01 123 3 24.4
2019-Sep-16 13:46 115 4 24.4
2019-Sep-16 13:31 136 3 24.4
2019-Sep-16 13:15 131 3 24.4
2019-Sep-16 13:01 110 3 24.4
2019-Sep-16 12:45 117 3 24.4
2019-Sep-16 12:30 121 4 24.4
2019-Sep-16 12:16 112 4 24.4
2019-Sep-16 12:01 134 2 25.0
2019-Sep-16 11:45 134 3 24.4
2019-Sep-16 11:31 135 3 25.0
2019-Sep-16 11:15 126 3 25.0
2019-Sep-16 11:00 112 2 25.0
2019-Sep-16 10:45 098 3 25.0
2019-Sep-16 10:30 119 2 25.6
2019-Sep-16 10:15 132 3 24.4
2019-Sep-16 10:00 130 3 24.4
2019-Sep-16 09:45 091 2 25.0
2019-Sep-16 09:30 102 2 25.0
2019-Sep-16 09:15 115 2 24.4
2019-Sep-16 09:00 106 2 24.4
2019-Sep-16 08:45 109 1 25.0
2019-Sep-16 08:30 107 2 24.4
2019-Sep-16 08:15 109 3 24.4
2019-Sep-16 08:00 119 1 25.0
2019-Sep-16 07:45 096 0 24.4
2019-Sep-16 07:30 070 0 24.4
2019-Sep-16 07:15 069 0 24.4
2019-Sep-16 07:00 065 23.9
2019-Sep-16 06:45 064 23.9
2019-Sep-16 06:30 064 23.3
2019-Sep-16 06:17 056 22.8
2019-Sep-16 06:01 056 21.7
2019-Sep-16 05:46 056 21.7
2019-Sep-16 05:32 056 21.1
2019-Sep-16 05:16 056 21.1
2019-Sep-16 05:02 056 21.1
2019-Sep-16 04:47 056 0 21.1
2019-Sep-16 04:31 056 21.1
2019-Sep-16 04:16 056 0 21.1
2019-Sep-16 04:02 056 20.6
2019-Sep-16 03:46 056 21.1
2019-Sep-16 03:31 056 20.6
2019-Sep-16 03:16 056 20.6
2019-Sep-16 03:01 056 21.1
2019-Sep-16 02:46 056 21.1
2019-Sep-16 02:30 056 20.6
2019-Sep-16 02:16 056 20.6
2019-Sep-16 02:01 056 0 21.1
2019-Sep-16 01:47 056 21.1
2019-Sep-16 01:30 056 21.1
2019-Sep-16 01:16 056 0 21.1
2019-Sep-16 01:01 056 0 21.1
2019-Sep-16 00:46 056 0 21.1
2019-Sep-16 00:30 056 1 21.1
2019-Sep-16 00:16 056 1 21.1
2019-Sep-16 00:01 056 0 21.1
2019-Sep-15 23:46 056 21.1
2019-Sep-15 23:30 056 0 21.1
2019-Sep-15 23:15 056 0 21.7
2019-Sep-15 23:01 056 0 21.7
2019-Sep-15 22:45 056 21.7
2019-Sep-15 22:31 056 21.7
2019-Sep-15 22:16 057 1 21.7
2019-Sep-15 22:00 057 1 21.7
2019-Sep-15 21:45 057 22.2
2019-Sep-15 21:31 057 22.2
2019-Sep-15 21:15 057 0 22.2
2019-Sep-15 21:00 057 22.8
2019-Sep-15 20:45 057 22.8
2019-Sep-15 20:30 057 22.8
2019-Sep-15 20:15 057 0 22.8
2019-Sep-15 20:00 057 22.8
2019-Sep-15 19:45 057 1 22.8
2019-Sep-15 19:30 057 23.3
2019-Sep-15 19:15 057 23.3
2019-Sep-15 19:00 057 23.3
2019-Sep-15 18:45 057 23.9
2019-Sep-15 18:30 057 23.9
2019-Sep-15 18:15 057 24.4
2019-Sep-15 18:00 057 24.4
2019-Sep-15 17:45 058 24.4
2019-Sep-15 17:30 058 24.4
2019-Sep-15 17:15 058 24.4
2019-Sep-15 17:00 057 24.4
2019-Sep-15 16:45 057 25.0
2019-Sep-15 16:30 057 25.0
2019-Sep-15 16:15 057 0 25.0
2019-Sep-15 16:00 057 25.0
2019-Sep-15 15:46 057 0 25.0
2019-Sep-15 15:32 057 1 25.0
2019-Sep-15 15:17 060 1 25.0
2019-Sep-15 15:02 061 0 25.6
2019-Sep-15 14:46 060 0 25.6
2019-Sep-15 14:31 061 1 25.6
2019-Sep-15 14:18 059 2 25.0
2019-Sep-15 14:01 069 1 25.6
2019-Sep-15 13:46 105 0 25.6
2019-Sep-15 13:31 111 0 26.1
2019-Sep-15 13:16 096 1 25.6
2019-Sep-15 13:02 090 1 26.1
2019-Sep-15 12:45 105 0 26.7
2019-Sep-15 12:31 128 0 26.1
2019-Sep-15 12:16 139 2 25.6
2019-Sep-15 12:01 116 2 25.6
2019-Sep-15 11:46 124 2 25.0
2019-Sep-15 11:31 132 2 25.0
2019-Sep-15 11:16 094 1 25.6
2019-Sep-15 11:01 103 2 26.1
2019-Sep-15 10:46 098 1 25.6
2019-Sep-15 10:31 040 2 25.6
2019-Sep-15 10:15 066 1 26.1
2019-Sep-15 10:01 094 1 26.1
2019-Sep-15 09:46 091 2 25.6
2019-Sep-15 09:31 111 3 25.6
2019-Sep-15 09:16 126 2 25.6
2019-Sep-15 09:01 118 2 25.6
2019-Sep-15 08:46 112 1 25.6
2019-Sep-15 08:31 109 0 26.1
2019-Sep-15 08:15 109 0 25.6
2019-Sep-15 08:01 109 0 25.6
2019-Sep-15 07:46 109 2 25.0
2019-Sep-15 07:30 105 2 25.0
2019-Sep-15 07:15 327 0 25.6
2019-Sep-15 07:01 321 25.6
2019-Sep-15 06:45 321 25.0
2019-Sep-15 06:30 321 24.4
2019-Sep-15 06:15 321 0 23.3
2019-Sep-15 06:01 321 0 22.8
2019-Sep-15 05:45 321 0 22.8
2019-Sep-15 05:30 321 2 22.2
2019-Sep-15 05:15 321 1 22.2
2019-Sep-15 05:00 321 0 22.2
2019-Sep-15 04:45 321 0 22.8
2019-Sep-15 04:30 331 2 22.8
2019-Sep-15 04:15 331 1 22.2
2019-Sep-15 04:00 331 0 22.2
2019-Sep-15 03:45 331 0 22.2
2019-Sep-15 03:30 331 22.2
2019-Sep-15 03:15 331 22.2
2019-Sep-15 03:00 331 0 22.2
2019-Sep-15 02:45 331 0 22.2
2019-Sep-15 02:30 331 0 21.7
2019-Sep-15 02:15 331 0 21.7
2019-Sep-15 02:00 331 0 22.2
2019-Sep-15 01:45 331 22.2
2019-Sep-15 01:32 331 22.2
2019-Sep-15 01:17 331 22.2
2019-Sep-15 01:02 331 22.2
2019-Sep-15 00:47 331 22.2
2019-Sep-15 00:31 331 1 22.8
2019-Sep-15 00:16 331 1 22.8
2019-Sep-15 00:02 331 0 23.3
2019-Sep-14 23:46 331 0 23.3
2019-Sep-14 23:31 331 23.3
2019-Sep-14 23:16 331 0 23.3
2019-Sep-14 23:01 331 0 23.9
2019-Sep-14 22:46 331 0 23.3
2019-Sep-14 22:31 332 1 23.3
2019-Sep-14 22:16 017 22.8
2019-Sep-14 22:01 017 22.8